Weather History for Oscoda, MI

Change the Weather History Date:

Thursday, January 23, 2014

  Actual Average Record
Temperature  
Mean Temperature 1 °F -  
Max Temperature 13 °F 24 °F 53 °F (1999)
Min Temperature -11 °F 10 °F -11 °F (2014)
Degree Days  
Heating Degree Days 64    
Moisture  
Dew Point -3 °F    
Average Humidity 77    
Maximum Humidity 90    
Minimum Humidity 54    
Precipitation  
Precipitation 0.00 in - - ()
Sea Level Pressure  
Sea Level Pressure 30.24 in    
Wind  
Wind Speed 6 mph (NNW)    
Max Wind Speed 22 mph    
Max Gust Speed 31 mph    
Visibility 7 miles    
Events Snow    
Averages and records for this station are not official NWS values.
T = Trace of Precipitation, MM = Missing Value Source: NWS Daily Summary

Daily Weather History Graph

Daily Weather History Graph

Search for Another Location

Airport:

Trip Planner

Search our weather history database for the weather conditions in past years. The results will help you decide how hot, cold, wet, or windy it might be!

Date:

Astronomy

Jan. 23, 2014 Rise Set
Actual Time 8:00 AM EST 5:30 PM EST
Civil Twilight 7:29 AM EST 6:02 PM EST
Nautical Twilight 6:53 AM EST 6:37 PM EST
Astronomical Twilight 6:19 AM EST 7:12 PM EST
Moon 12:17 AM EST (1/23) 11:17 AM EST (1/23)
Length of Visible Light 10h 32m
Length of Day
9h 29m
Waning Gibbous, 55% of the Moon is Illuminated
Jan 23
Waning Gibbous
Jan 24
Last Quarter
Jan 30
New
Feb 6
First Quarter
Feb 14
Full

Hourly Weather History & Observations

Time (EST) Temp. Windchill Dew Point Humidity Pressure Visibility Wind Dir Wind Speed Gust Speed Precip Events Conditions
12:13 AM 6.8 °F - 4.1 °F 89% 29.95 in 4.0 mi Calm Calm - N/A Snow Light Snow
12:34 AM 6.8 °F - 4.1 °F 89% 29.95 in 5.0 mi Calm Calm - N/A Snow Light Snow
12:54 AM 6.1 °F - 3.2 °F 88% 29.95 in 7.0 mi Calm Calm - N/A   Overcast
1:13 AM 5.7 °F -1.3 °F 3.0 °F 89% 29.95 in 10.0 mi NNW 3.5 mph - N/A   Overcast
1:34 AM 4.3 °F -2.9 °F 1.0 °F 86% 29.96 in 10.0 mi NNW 3.5 mph - N/A   Overcast
1:54 AM 5.0 °F -2.1 °F 1.9 °F 87% 29.97 in 7.0 mi NW 3.5 mph - N/A   Overcast
2:13 AM 5.0 °F -2.1 °F 1.8 °F 86% 29.97 in 5.0 mi NW 3.5 mph - N/A Snow Light Snow
2:34 AM 2.1 °F -5.4 °F -1.8 °F 83% 29.98 in 7.0 mi NNW 3.5 mph - N/A   Overcast
2:54 AM 1.2 °F -6.4 °F -1.8 °F 87% 29.99 in 10.0 mi NNW 3.5 mph - N/A   Scattered Clouds
3:13 AM -3.3 °F -11.6 °F -6.3 °F 87% 30.00 in 10.0 mi NNW 3.5 mph - N/A   Clear
3:34 AM -3.3 °F - -6.0 °F 88% 30.01 in 10.0 mi Calm Calm - N/A   Clear
3:54 AM -4.7 °F - -8.0 °F 86% 30.01 in 10.0 mi Calm Calm - N/A   Clear
4:13 AM -5.1 °F - -8.5 °F 85% 30.01 in 10.0 mi Calm Calm - N/A   Scattered Clouds
4:34 AM -7.1 °F - -11.6 °F 81% 30.03 in 10.0 mi Calm Calm - N/A   Mostly Cloudy
4:54 AM -5.4 °F -14.1 °F -9.9 °F 81% 30.03 in 10.0 mi NW 3.5 mph - N/A   Overcast
5:13 AM -0.8 °F -13.9 °F -4.0 °F 86% 30.04 in 10.0 mi NW 6.9 mph - N/A   Overcast
5:34 AM 7.5 °F -7.7 °F 4.8 °F 89% 30.04 in 2.0 mi North 11.5 mph 17.3 mph N/A Snow Light Snow
5:54 AM 13.8 °F -4.1 °F 11.3 °F 90% 30.07 in 0.8 mi NE 20.7 mph 27.6 mph N/A Snow Snow
6:13 AM 13.8 °F -4.1 °F 11.1 °F 89% 30.08 in 1.5 mi NE 20.7 mph - N/A Snow Light Snow
6:34 AM 13.5 °F -2.7 °F 9.3 °F 84% 30.10 in 5.0 mi NE 16.1 mph 23.0 mph N/A Snow Light Snow
6:54 AM 13.5 °F -5.0 °F 9.9 °F 86% 30.11 in 1.0 mi NNE 21.9 mph 31.1 mph N/A Snow Light Snow
7:13 AM 12.9 °F -2.8 °F 8.6 °F 83% 30.13 in 1.8 mi NNE 15.0 mph - N/A Snow Light Snow
7:34 AM 12.6 °F -4.9 °F 7.5 °F 80% 30.15 in 3.0 mi NNE 18.4 mph 21.9 mph N/A Snow Light Snow
7:54 AM 12.2 °F -3.1 °F 8.4 °F 85% 30.16 in 1.5 mi NNE 13.8 mph - N/A Snow Light Snow
8:13 AM 11.7 °F -2.5 °F 7.7 °F 84% 30.18 in 1.5 mi North 11.5 mph - N/A Snow Light Snow
8:34 AM 11.1 °F -3.2 °F 7.5 °F 85% 30.19 in 1.0 mi North 11.5 mph - N/A Snow Light Snow
8:54 AM 10.4 °F -4.8 °F 6.8 °F 85% 30.20 in 0.8 mi North 12.7 mph - N/A Snow Light Snow
9:13 AM 10.0 °F -5.2 °F 5.9 °F 83% 30.22 in 0.8 mi NNW 12.7 mph - N/A Snow Light Snow
9:34 AM 9.5 °F -4.4 °F 5.5 °F 84% 30.23 in 0.8 mi NNW 10.4 mph - N/A Snow Light Snow
9:54 AM 8.6 °F -7.0 °F 4.6 °F 84% 30.25 in 1.0 mi NNW 12.7 mph - N/A Snow Light Snow
10:13 AM 8.6 °F -7.7 °F 4.1 °F 82% 30.26 in 1.2 mi North 13.8 mph 18.4 mph N/A Snow Light Snow
10:34 AM 7.9 °F -8.6 °F 3.0 °F 81% 30.28 in 1.5 mi NNW 13.8 mph - N/A   Haze
10:54 AM 8.1 °F -6.2 °F 2.3 °F 77% 30.29 in 3.0 mi North 10.4 mph - N/A   Haze
11:13 AM 7.7 °F -8.2 °F 1.9 °F 77% 30.30 in 4.0 mi North 12.7 mph 17.3 mph N/A   Haze
11:34 AM 8.2 °F -8.2 °F 1.2 °F 73% 30.31 in 7.0 mi North 13.8 mph 19.6 mph N/A   Mostly Cloudy
11:54 AM 8.6 °F -8.3 °F 1.4 °F 73% 30.31 in 5.0 mi North 15.0 mph 19.6 mph N/A   Haze
12:13 PM 8.8 °F -6.1 °F 0.9 °F 70% 30.31 in 7.0 mi NNW 11.5 mph 21.9 mph N/A   Mostly Cloudy
12:34 PM 8.4 °F -6.5 °F -0.4 °F 67% 30.32 in 5.0 mi NNW 11.5 mph - N/A   Haze
12:54 PM 7.9 °F -9.3 °F -1.5 °F 66% 30.33 in 5.0 mi North 15.0 mph 20.7 mph N/A   Haze
1:13 PM 7.9 °F -8.6 °F -2.9 °F 61% 30.33 in 10.0 mi NNW 13.8 mph 19.6 mph N/A   Clear
1:34 PM 8.2 °F -6.8 °F -3.3 °F 59% 30.33 in 10.0 mi North 11.5 mph - N/A   Scattered Clouds
1:54 PM 8.1 °F -6.2 °F -3.8 °F 58% 30.34 in 7.0 mi North 10.4 mph 16.1 mph N/A   Mostly Cloudy
2:14 PM 8.1 °F -7.7 °F -5.4 °F 54% 30.34 in 10.0 mi NNW 12.7 mph - N/A   Scattered Clouds
2:34 PM 8.1 °F -7.0 °F -5.4 °F 54% 30.34 in 10.0 mi NNW 11.5 mph - N/A   Clear
2:53 PM 8.2 °F -7.5 °F -5.3 °F 54% 30.34 in 10.0 mi NW 12.7 mph - N/A   Clear
3:14 PM 7.5 °F -6.0 °F -4.4 °F 58% 30.34 in 10.0 mi NW 9.2 mph - N/A   Clear
3:34 PM 7.5 °F -6.9 °F -4.5 °F 58% 30.35 in 10.0 mi NW 10.4 mph - N/A   Clear
3:53 PM 8.6 °F -5.5 °F -4.0 °F 57% 30.36 in 10.0 mi WNW 10.4 mph - N/A   Scattered Clouds
4:14 PM 8.6 °F -3.7 °F -3.6 °F 58% 30.36 in 10.0 mi WNW 8.1 mph - N/A   Mostly Cloudy
4:34 PM 7.3 °F -7.1 °F -4.0 °F 60% 30.37 in 10.0 mi NW 10.4 mph - N/A   Scattered Clouds
4:53 PM 7.7 °F -5.8 °F -4.4 °F 58% 30.37 in 10.0 mi WNW 9.2 mph - N/A   Scattered Clouds
5:14 PM 6.8 °F -3.5 °F -4.2 °F 61% 30.38 in 10.0 mi NNW 5.8 mph - N/A   Clear
5:34 PM 5.4 °F -1.7 °F -4.5 °F 64% 30.38 in 10.0 mi NW 3.5 mph - N/A   Clear
5:54 PM 3.6 °F -3.8 °F -4.5 °F 69% 30.39 in 10.0 mi NW 3.5 mph - N/A   Clear
6:14 PM 1.6 °F - -5.4 °F 72% 30.39 in 10.0 mi Calm Calm - N/A   Clear
6:34 PM 0.1 °F - -6.5 °F 74% 30.39 in 10.0 mi Calm Calm - N/A   Clear
6:53 PM -2.2 °F -10.4 °F -7.8 °F 77% 30.40 in 10.0 mi WNW 3.5 mph - N/A   Clear
7:14 PM -5.4 °F -14.1 °F -10.3 °F 80% 30.41 in 10.0 mi WNW 3.5 mph - N/A   Clear
7:34 PM -6.5 °F - -11.6 °F 79% 30.41 in 10.0 mi Calm Calm - N/A   Clear
7:53 PM -8.5 °F - -13.4 °F 79% 30.41 in 10.0 mi Calm Calm - N/A   Clear
8:14 PM -8.3 °F - -13.4 °F 79% 30.42 in 10.0 mi Calm Calm - N/A   Clear
8:34 PM -7.4 °F -16.3 °F -12.5 °F 79% 30.41 in 10.0 mi WNW 3.5 mph - N/A   Clear
8:53 PM -4.9 °F - -10.5 °F 77% 30.41 in 10.0 mi Calm Calm - N/A   Clear
9:14 PM -6.9 °F -15.7 °F -12.5 °F 77% 30.40 in 10.0 mi West 3.5 mph - N/A   Clear
9:34 PM -7.8 °F - -13.2 °F 77% 30.39 in 10.0 mi Calm Calm - N/A   Clear
9:53 PM -9.2 °F -18.4 °F -14.3 °F 79% 30.38 in 10.0 mi SSW 3.5 mph - N/A   Clear
10:14 PM -10.7 °F -22.3 °F -15.0 °F 81% 30.38 in 10.0 mi SW 4.6 mph - N/A   Clear
10:34 PM -11.6 °F -26.9 °F -15.9 °F 81% 30.37 in 10.0 mi SW 6.9 mph - N/A   Clear
10:53 PM -11.2 °F -27.8 °F -15.7 °F 80% 30.37 in 10.0 mi SW 8.1 mph - N/A   Clear
11:14 PM -8.5 °F -24.5 °F -13.2 °F 80% 30.37 in 10.0 mi WSW 8.1 mph - N/A   Clear
11:34 PM -9.8 °F -24.7 °F -14.8 °F 78% 30.36 in 10.0 mi WSW 6.9 mph - N/A   Clear
11:53 PM -9.8 °F -24.7 °F -14.4 °F 80% 30.36 in 10.0 mi SW 6.9 mph - N/A   Clear